GW4700 Weather Reports


Display with metric or nautical units.
time (UTC)temp
F
wind
direction
speed
MPH
gust
MPH
rain 1hr
in
rain 24hr
in
rain mn
in
humidity
%
barometer
mb
20260906022017 72 33 2.0 7.0 0.00 0.00 0.00 87 1013.9
20260906020903 73 36 0.0 6.0 0.00 0.00 0.00 87 1014.1
20260906020003 73 0 0.0 0.0 0.00 0.00 0.00 86 1014.1
20260906015403 73 0 0.0 1.0 0.00 0.00 0.00 86 1014.0
20260906014503 72 37 2.0 7.0 0.00 0.00 0.00 87 1014.0
20260906013603 72 43 1.0 7.0 0.00 0.00 0.00 87 1013.8
20260906012703 72 0 0.0 1.0 0.00 0.00 0.00 87 1013.6
20260906011803 72 46 0.0 7.0 0.00 0.00 0.00 87 1013.4
20260906010903 72 43 1.0 8.0 0.00 0.00 0.00 87 1013.4
20260906010218 72 36 9.0 14.0 0.00 0.00 0.00 86 1013.4
20260906005403 72 31 9.0 14.0 0.00 0.00 0.00 86 1013.3
20260906004503 73 36 1.0 6.0 0.00 0.00 0.00 87 1013.3
20260906003603 73 39 0.0 9.0 0.00 0.00 0.00 87 1013.2
20260906002703 73 33 2.0 10.0 0.00 0.00 0.00 86 1013.2
20260906001803 74 25 3.0 10.0 0.00 0.00 0.00 86 1013.0
20260906000903 74 26 7.0 14.0 0.00 0.00 0.00 86 1013.0
20260906000003 74 26 8.0 12.0 0.00 0.00 0.00 85 1012.9
20260905235403 75 31 9.0 9.0 0.00 0.00 0.00 85 1012.8
20260905234503 75 28 13.0 12.0 0.00 0.00 0.00 85 1012.8
20260905233604 75 26 14.0 13.0 0.00 0.00 0.00 85 1012.8
20260905232703 75 31 14.0 14.0 0.00 0.00 0.00 85 1012.8
20260905231804 75 33 13.0 14.0 0.00 0.00 0.00 85 1012.7
20260905230903 75 25 13.0 15.0 0.00 0.00 0.00 85 1012.7
20260905230003 75 33 13.0 15.0 0.00 0.00 0.00 84 1012.7
20260905225403 75 33 12.0 12.0 0.00 0.00 0.00 84 1012.8
20260905224503 76 34 14.0 15.0 0.00 0.00 0.00 83 1012.7
20260905223603 76 28 16.0 16.0 0.00 0.00 0.00 83 1012.7
20260905222703 76 26 17.0 16.0 0.00 0.00 0.00 83 1012.7
20260905221803 76 26 17.0 22.0 0.00 0.00 0.00 83 1012.7
20260905220903 76 31 15.0 14.0 0.00 0.00 0.00 83 1012.7
20260905220003 77 35 16.0 16.0 0.00 0.00 0.00 82 1012.7
20260905215403 78 39 14.0 16.0 0.00 0.00 0.00 80 1012.7
20260905214503 78 30 15.0 17.0 0.00 0.00 0.00 80 1012.5
20260905213816 78 20 15.0 15.0 0.00 0.00 0.00 80 1012.5
20260905212703 78 26 14.0 14.0 0.00 0.00 0.00 80 1012.4
20260905211803 78 31 13.0 16.0 0.00 0.00 0.00 80 1012.3
20260905211117 78 26 13.0 15.0 0.00 0.00 0.00 80 1012.3
20260905210003 78 17 18.0 18.0 0.00 0.00 0.00 80 1012.4
20260905205403 79 22 16.0 15.0 0.00 0.00 0.00 79 1012.4
20260905204503 79 27 17.0 17.0 0.00 0.00 0.00 79 1012.4
20260905203603 80 22 16.0 15.0 0.00 0.00 0.00 78 1012.3
20260905202917 80 32 15.0 16.0 0.00 0.00 0.00 77 1012.4
20260905201803 81 22 15.0 15.0 0.00 0.00 0.00 75 1012.3
20260905200903 82 21 15.0 14.0 0.00 0.00 0.00 74 1012.3
20260905200003 82 26 14.0 13.0 0.00 0.00 0.00 75 1012.4
20260905195617 83 20 14.0 14.0 0.00 0.00 0.00 74 1012.3
20260905194503 83 20 15.0 15.0 0.00 0.00 0.00 74 1012.2
20260905193603 83 18 12.0 16.0 0.00 0.00 0.00 75 1012.4
20260905192703 83 30 13.0 14.0 0.00 0.00 0.00 73 1012.4
20260905191803 83 12 15.0 15.0 0.00 0.00 0.00 73 1012.4
20260905190903 84 22 14.0 15.0 0.00 0.00 0.00 73 1012.4
20260905190003 84 20 15.0 15.0 0.00 0.00 0.00 74 1012.4
20260905185403 83 30 15.0 15.0 0.00 0.00 0.00 75 1012.4
20260905184503 83 19 13.0 14.0 0.00 0.00 0.00 74 1012.4
20260905183603 84 38 11.0 12.0 0.00 0.00 0.00 73 1012.3
20260905182703 85 25 11.0 11.0 0.00 0.00 0.00 73 1012.3
20260905181803 84 47 10.0 11.0 0.00 0.00 0.00 74 1012.3
20260905180903 84 35 12.0 13.0 0.00 0.00 0.00 74 1012.3
20260905180004 84 27 11.0 11.0 0.00 0.00 0.00 74 1012.3
20260905175404 84 34 12.0 12.0 0.00 0.00 0.00 75 1012.3
20260905174503 85 25 10.0 13.0 0.00 0.00 0.00 75 1012.2
20260905173603 85 38 11.0 12.0 0.00 0.00 0.00 75 1012.3
20260905172918 85 37 11.0 12.0 0.00 0.00 0.00 76 1012.3
20260905171804 84 41 9.0 10.0 0.00 0.00 0.00 79 1012.3
20260905170903 84 48 8.0 9.0 0.00 0.00 0.00 79 1012.4
20260905170003 83 43 10.0 10.0 0.00 0.00 0.00 79 1012.5
20260905165403 84 37 10.0 10.0 0.00 0.00 0.00 79 1012.6
20260905164503 84 27 10.0 10.0 0.00 0.00 0.00 79 1012.6
20260905163603 84 13 9.0 10.0 0.00 0.00 0.00 78 1012.7
20260905162703 84 46 6.0 8.0 0.00 0.00 0.00 80 1012.6
20260905161803 84 47 7.0 12.0 0.00 0.00 0.00 82 1012.6
20260905160903 83 45 8.0 12.0 0.00 0.00 0.00 82 1012.6
20260905160003 82 41 7.0 9.0 0.00 0.00 0.00 82 1012.5
20260905155403 82 40 9.0 10.0 0.00 0.00 0.00 83 1012.4
20260905154503 83 46 9.0 10.0 0.00 0.00 0.00 82 1012.4
20260905153603 82 39 9.0 9.0 0.00 0.00 0.00 82 1012.4
20260905152703 82 34 9.0 10.0 0.00 0.00 0.00 83 1012.4
20260905151803 82 36 10.0 10.0 0.00 0.00 0.00 84 1012.3
20260905150903 82 26 8.0 8.0 0.00 0.00 0.00 84 1012.3
20260905150004 82 38 8.0 9.0 0.00 0.00 0.00 83 1012.1
20260905145403 82 46 8.0 8.0 0.00 0.00 0.00 82 1012.0
20260905144503 83 34 9.0 10.0 0.00 0.00 0.00 82 1011.8
20260905143603 83 33 6.0 6.0 0.00 0.00 0.00 83 1011.6
20260905142703 83 24 6.0 8.0 0.00 0.00 0.00 83 1011.6
20260905141804 82 42 5.0 6.0 0.00 0.00 0.00 84 1011.6
20260905140903 82 12 6.0 7.0 0.00 0.00 0.00 86 1011.9
20260905140004 81 4 7.0 7.0 0.00 0.00 0.00 87 1012.0
20260905135617 81 7 8.0 7.0 0.00 0.00 0.00 87 1012.1
20260905134503 80 2 6.0 8.0 0.00 0.00 0.00 89 1012.0
20260905133604 80 18 5.0 6.0 0.00 0.00 0.00 90 1011.8
20260905132703 79 340 4.0 4.0 0.00 0.00 0.00 90 1011.8
20260905131803 78 306 2.0 3.0 0.00 0.00 0.00 91 1011.7
20260905130903 78 224 0.0 1.0 0.00 0.00 0.00 91 1011.7
20260905130003 78 225 0.0 1.0 0.00 0.00 0.00 92 1011.5
20260905125403 77 225 1.0 1.0 0.00 0.00 0.00 91 1011.6
20260905124503 77 225 0.0 1.0 0.00 0.00 0.00 91 1011.4
20260905123603 77 225 0.0 1.0 0.00 0.00 0.00 92 1011.3
20260905122917 76 225 0.0 1.0 0.00 0.00 0.00 92 1011.3
20260905121804 76 225 0.0 1.0 0.00 0.00 0.00 92 1011.2
20260905120903 76 225 0.0 1.0 0.00 0.00 0.00 92 1011.0
20260905120003 76 226 1.0 3.0 0.00 0.00 0.00 92 1010.9
20260905115618 76 227 2.0 3.0 0.00 0.00 0.00 92 1010.9
20260905114504 76 48 1.0 3.0 0.00 0.00 0.00 92 1010.8
20260905113603 76 48 0.0 1.0 0.00 0.00 0.00 93 1010.8
20260905112703 76 48 0.0 1.0 0.00 0.00 0.00 93 1010.8
20260905111804 76 48 0.0 1.0 0.00 0.00 0.00 93 1010.8
20260905110903 75 0 0.0 0.0 0.00 0.00 0.00 93 1010.8
20260905110003 75 0 0.0 0.0 0.00 0.00 0.00 93 1010.8
20260905105403 75 48 0.0 1.0 0.00 0.00 0.00 93 1010.8
20260905104717 75 48 0.0 1.0 0.00 0.00 0.00 93 1010.8
20260905103603 75 48 1.0 4.0 0.00 0.00 0.00 93 1010.9
20260905102703 75 48 0.0 1.0 0.00 0.00 0.00 93 1010.8
20260905101804 75 48 0.0 1.0 0.00 0.00 0.00 93 1010.8
20260905100903 75 0 0.0 1.0 0.00 0.00 0.00 93 1010.9
20260905100218 75 48 0.0 1.0 0.00 0.00 0.00 93 1010.9
20260905095617 75 48 0.0 1.0 0.00 0.00 0.00 93 1011.0
20260905094503 75 0 0.0 0.0 0.00 0.00 0.00 93 1010.8
20260905093818 75 0 0.0 1.0 0.00 0.00 0.00 93 1010.8
20260905092703 75 0 0.0 0.0 0.00 0.00 0.00 93 1010.9
20260905091804 75 0 0.0 0.0 0.00 0.00 0.00 93 1010.8
20260905090903 75 0 0.0 0.0 0.00 0.00 0.00 92 1010.9
20260905090003 76 34 1.0 2.0 0.00 0.00 0.00 92 1010.8
20260905085403 76 316 0.0 2.0 0.00 0.00 0.00 92 1010.9
20260905084503 76 0 0.0 0.0 0.00 0.00 0.00 92 1010.8
20260905083603 76 0 0.0 0.0 0.00 0.00 0.00 92 1010.9
20260905082703 76 0 0.0 0.0 0.00 0.00 0.00 92 1010.8
20260905082018 76 0 0.0 0.0 0.00 0.00 0.00 91 1010.8
20260905080903 77 0 0.0 0.0 0.00 0.00 0.00 91 1010.8
20260905080004 77 0 0.0 0.0 0.00 0.00 0.00 90 1010.7
20260905075403 78 302 0.0 1.0 0.00 0.00 0.00 90 1010.7
20260905074503 78 302 0.0 1.0 0.00 0.00 0.00 90 1010.6
20260905073603 78 302 0.0 1.0 0.00 0.00 0.00 90 1010.6
20260905072703 78 302 0.0 2.0 0.00 0.00 0.00 89 1010.5
20260905072018 78 0 0.0 0.0 0.00 0.00 0.00 89 1010.5
20260905070903 78 0 0.0 0.0 0.00 0.00 0.00 89 1010.5
20260905070003 78 0 0.0 0.0 0.00 0.00 0.00 89 1010.5
20260905065403 79 0 0.0 0.0 0.00 0.00 0.00 88 1010.6
20260905064503 79 0 0.0 0.0 0.00 0.00 0.00 88 1010.6
20260905063603 79 0 0.0 0.0 0.00 0.00 0.00 88 1010.7
20260905062703 79 0 0.0 0.0 0.00 0.00 0.00 89 1010.8
20260905061803 79 0 0.0 0.0 0.00 0.00 0.00 89 1010.8
20260905060903 79 0 0.0 0.0 0.00 0.00 0.00 89 1011.0
20260905060003 79 0 0.0 0.0 0.00 0.00 0.00 88 1010.9
20260905055403 79 0 0.0 0.0 0.00 0.00 0.00 89 1011.0
20260905054717 79 0 0.0 0.0 0.00 0.00 0.00 89 1011.2
20260905053603 79 0 0.0 0.0 0.00 0.00 0.00 88 1011.3
20260905052703 79 0 0.0 0.0 0.00 0.00 0.00 88 1011.3
20260905051804 80 302 0.0 1.0 0.00 0.00 0.00 88 1011.2
20260905050903 80 302 0.0 2.0 0.00 0.00 0.00 87 1011.1
20260905050004 80 302 0.0 2.0 0.00 0.00 0.00 88 1011.1
20260905045403 80 0 0.0 0.0 0.00 0.00 0.00 89 1011.2
20260905044717 80 0 0.0 0.0 0.00 0.00 0.00 88 1011.3
20260905043603 81 0 0.0 0.0 0.00 0.00 0.00 88 1011.4
20260905042917 81 302 0.0 1.0 0.00 0.00 0.00 87 1011.5
20260905041804 81 302 0.0 1.0 0.00 0.00 0.00 87 1011.4
20260905040903 81 302 0.0 1.0 0.00 0.00 0.00 87 1011.3
20260905040003 81 302 0.0 1.0 0.00 0.00 0.00 87 1011.3
20260905035403 81 0 0.0 1.0 0.00 0.00 0.00 87 1011.5
20260905034503 81 302 0.0 1.0 0.00 0.00 0.00 86 1011.6
20260905033603 82 302 0.0 1.0 0.00 0.00 0.00 86 1011.7
20260905032703 82 0 0.0 0.0 0.00 0.00 0.00 84 1011.7
20260905031803 82 0 0.0 0.0 0.00 0.00 0.00 84 1011.7
20260905030903 82 0 0.0 1.0 0.00 0.00 0.00 84 1011.7
20260905030003 83 0 0.0 0.0 0.00 0.00 0.00 84 1011.8
20260905025617 83 0 0.0 0.0 0.00 0.00 0.00 84 1011.7
20260905024503 82 0 0.0 0.0 0.00 0.00 0.00 85 1011.6
20260905023603 82 0 0.0 0.0 0.00 0.00 0.00 85 1011.5
20260905022703 82 0 0.0 0.0 0.00 0.00 0.00 84 1011.6